7 * 24
多渠道服务支持
JILIN-01 GAOFEN 3I(吉林一号高分3I)是中国于2020年9月15日发射的商业遥感卫星,隶属于“吉林一号”卫星星座。该卫星延续了吉林一号星座高分辨率对地观测的技术优势,可提供高清晰度遥感影像,服务于国土测绘、农林监测、智慧城市建设、防灾减灾等多个领域。它的成功入轨进一步扩充了吉林一号星座的观测能力,推动了我国商业航天遥感应用的产业化发展,为国民经济各领域提供持续可靠的空间数据支撑。
中国
(CN)
| 数据来源 | 国际轨道数据 |
| 星历时间: | 2026-06-09T05:52:45+0800 轨道信息已过期48天 |
| 半长轴: | 6561.203km |
| 偏心率: | 0.0011591 |
| 轨道倾角: | 97.197° |
| 近地点辐角 | 256.765° |
| 升交点赤经 | 222.041° |
| 平近点角 | 103.235° |
| 近地点: | 175.46km |
| 远地点: | 190.672km |
| 周期: | 88.153分钟 |
| 每日圈数: | 16.335318 |